Flag for Canada Weather past 2 weeks in Whitby, Ontario, Canada

Now
54 °F

Partly sunny.


Feels Like: 54 °F
Forecast: 56 / 75 °F
Wind: No wind

Location: Toronto Buttonville

Current Time: Jul 25, 2014 at 8:28:39 AM

Latest Report: Jul 25, 2014 at 7:00 AM


Visibility: 15 mi

Pressure: 30.06 "Hg

Humidity: 88%

Dew point: 50 °F

Location of WhitbyLocation

Historic Weather in Whitby — Graph

°F

Whitby temperature yesterday

Maximum temperature yesterday: 73 °F (at 4:00 PM)
Minimum temperature yesterday: 55 °F (at 5:00 AM)
Average temperature yesterday: 64 °F

Past Weeks' High & Low Weather Summary

 TemperatureHumidityPressure
High84 °F (Jul 12, 4:00 PM)100% (Jul 20, 4:00 AM)30.26 "Hg (Jul 20, 4:00 AM)
Low48 °F (Jul 17, 6:00 AM)33% (Jul 18, 8:00 PM)29.66 "Hg (Jul 15, 2:00 PM)
Average67 °F69%30.02 "Hg
* Reported Jul 10 7:00 AM — Jul 25 7:00 AM, Whitby, Weather by CustomWeather, © 2014

Note: Actual official high and low records may vary slightly from our data, if they occured in-between our weather recording intervals... More about our weather records

Advertising

Whitby weather history for previous 24 hours

 ConditionsComfort  
Time TempWeatherWind HumidityBarometerVisibility
7:00 AM
Jul 25
54 °FPartly sunny.No wind88%30.06 "Hg15 mi
6:00 AM52 °FHigh level clouds.No wind88%30.04 "Hg15 mi
5:00 AM52 °FClear.No wind94%30.03 "Hg15 mi
4:00 AM52 °FPassing clouds.No wind94%30.02 "Hg15 mi
3:00 AM54 °FPassing clouds.No wind88%30.03 "Hg15 mi
2:00 AM55 °FPassing clouds.No wind77%30.03 "Hg15 mi
1:00 AM55 °FPassing clouds.2 mph82%30.05 "Hg15 mi
12:00 AM61 °FPassing clouds.5 mph59%30.05 "Hg15 mi
11:00 PM
Jul 24
61 °FPassing clouds.5 mph59%30.05 "Hg15 mi
10:00 PM61 °FPassing clouds.3 mph63%30.03 "Hg15 mi
9:00 PM64 °FSunny.3 mph52%30.01 "Hg15 mi
8:00 PM68 °FPassing clouds.6 mph46%30.01 "Hg15 mi
7:00 PM70 °FScattered clouds.8 mph46%30.01 "Hg15 mi
6:00 PM72 °FScattered clouds.10 mph47%30.01 "Hg15 mi
5:00 PM73 °FScattered clouds.7 mph47%30.02 "Hg15 mi
4:00 PM73 °FScattered clouds.10 mph44%30.03 "Hg15 mi
3:00 PM72 °FScattered clouds.12 mph44%30.04 "Hg15 mi
2:00 PM72 °FPassing clouds.8 mph44%30.05 "Hg15 mi
1:00 PM70 °FScattered clouds.9 mph43%30.07 "Hg15 mi
12:00 PM70 °FScattered clouds.7 mph46%30.08 "Hg15 mi
11:00 AM68 °FScattered clouds.7 mph53%30.09 "Hg15 mi
10:00 AM64 °FScattered clouds.9 mph56%30.09 "Hg15 mi
9:00 AM63 °FPassing clouds.8 mph68%30.09 "Hg15 mi
8:00 AM61 °FPassing clouds.7 mph72%30.08 "Hg15 mi
Weather by CustomWeather, © 2014

See weather overviewHow to use our weather pages